Regional Weather Roundup
Issued by NWS

Home | Current Version | Previous Version | Graphics & Text | Print | Product List | Glossary On
Versions: 1 2 3 4 5 6 7 8 9 10 11 12 13 14 15 16 17 18 19 20 21 22 23 24 25 26 27 28 29 30 31 32 33 34 35 36 37 38 39 40 41 42 43 44 45 46 47 48 49 50
000
ASUS45 KPSR 222110
RWRAZ

ARIZONA HOURLY REGIONAL WEATHER ROUNDUP
NATIONAL WEATHER SERVICE PHOENIX AZ
200 PM MST SAT APR 22 2017

NOTE: FAIR INDICATES FEW OR NO CLOUDS BELOW 12,000 FEET WITH NO
SIGNIFICANT WEATHER AND/OR OBSTRUCTIONS TO VISIBILITY.

AZZ001>003-036-222200-
NORTHWEST ARIZONA

CITY           SKY/WX    TMP DP  RH WIND       PRES   REMARKS
BULLHEAD CITY  SUNNY     88  21   8 N20       29.86F
KINGMAN        SUNNY     82  25  12 NW7       30.00
$$

AZZ004>008-015-016-018-222200-
NORTH CENTRAL ARIZONA

CITY           SKY/WX    TMP DP  RH WIND       PRES   REMARKS
GRAND CANYON   SUNNY     64  23  21 MISG      30.17F
WILLIAMS       SUNNY     70  23  17 NW8G15    30.14F
PRESCOTT       SUNNY     78  26  14 NW7G16    30.05F
FLAGSTAFF      SUNNY     65  19  17 VRB3      30.16F
PAYSON         SUNNY     77  21  12 VRB6G14   30.08F
PAGE           SUNNY     67  13  12 NE10G18   30.12F
$$

AZZ009>014-017-222200-
NORTHEAST ARIZONA

CITY           SKY/WX    TMP DP  RH WIND       PRES   REMARKS
WINSLOW        SUNNY     71  17  12 CALM      30.11F
SAINT JOHNS    SUNNY     74  16  11 NW9G17    30.09F
WINDOW ROCK    SUNNY     69  17  13 SW6G18    30.14F
SHOW LOW       SUNNY     66  18  15 W6        30.16S
$$

AZZ540-542>544-546-548-222200-
GREATER PHOENIX AREA

CITY           SKY/WX    TMP DP  RH WIND       PRES   REMARKS
PHOENIX        MOSUNNY   91  19   7 W3        29.82F
BUCKEYE        SUNNY     90  27  10 S7        29.84F
GLENDALE       MOSUNNY   93  19   7 VRB5      29.85F
LUKE AFB       SUNNY     91  23   8 CALM      29.82F
DEER VALLEY    SUNNY     90  20   7 W9        29.84F
SCOTTSDALE     SUNNY     90  20   7 VRB5      29.86F
MESA-FALCON    SUNNY    N/A N/A N/A W6        29.85
MESA-GATEWAY   MOSUNNY   90  21   8 W5        29.85F
CHANDLER       SUNNY     91  18   6 W7        29.84F
$$

AZZ539-553-222200-
SOUTHWEST MARICOPA COUNTY AND PINAL COUNTY

CITY           SKY/WX    TMP DP  RH WIND       PRES   REMARKS
CASA GRANDE    SUNNY     92  19   7 VRB6      29.85F
GILA BEND      SUNNY     92  19   7 NE5       29.81F
$$

AZZ503-504-507>509-222200-
SOUTHEAST ARIZONA

CITY           SKY/WX    TMP DP  RH WIND       PRES   REMARKS
TUCSON         SUNNY     91  11   5 E3        29.91F
DAVIS-MONTHAN  SUNNY     91  11   5 CALM      29.90F
RYAN FIELD     SUNNY     91  14   6 CALM      29.90F
NOGALES        SUNNY     90  15   6 W8        29.97F
SIERRA VISTA   SUNNY     87  11   6 N10G17    30.02F
DOUGLAS        SUNNY     87   9   5 VRB7      29.99F
SAFFORD        SUNNY     89  12   5 N6        29.91F
$$

AZZ532-222200-
SOUTHWEST ARIZONA

CITY           SKY/WX    TMP DP  RH WIND       PRES   REMARKS
YUMA           SUNNY     97  22   7 N8        29.80F
$$

CAZ041-043-047-048-061-525>527-560>570-222200-
SOUTHERN CALIFORNIA

CITY           SKY/WX    TMP DP  RH WIND       PRES   REMARKS
DOWNTOWN L.A.  SUNNY     85  54  34 W3        29.84S
L.A. AIRPORT   MOSUNNY   74  59  59 W14       29.86F
SAN DIEGO      PTSUNNY   80  47  31 W5        29.87F
BURBANK        SUNNY     89  38  16 S9        29.85F
ONTARIO        MOSUNNY   93  27   9 SW9       29.85F
RIVERSIDE      SUNNY     93  33  12 W6        29.84F
PALM SPRINGS   SUNNY     97  19   6 SE9       29.83F
EL CENTRO NAS  MOSUNNY   96  21   6 E9        29.82F
IMPERIAL       SUNNY     96  31  10 VRB5      29.80F
BLYTHE         SUNNY     95  19   6 NE10      29.83F
NEEDLES        SUNNY     92  21   7 NE15G22   29.87F
$$

NVZ020-UTZ003-222200-
SOUTHERN NEVADA-UTAH

CITY           SKY/WX    TMP DP  RH WIND       PRES   REMARKS
LAS VEGAS      MOSUNNY   79  16   9 E6        29.98F
SALT LAKE CITY PTSUNNY   62  27  26 SE9       30.13F
$$

NMZ009-TXZ055-222200-
NEW MEXICO-WEST TEXAS

CITY           SKY/WX    TMP DP  RH WIND       PRES   REMARKS
ALBUQUERQUE    MOSUNNY   66  25  21 MISG      30.15F
EL PASO        SUNNY     74  35  24 SE16G22   30.07
$$


........................KEY........................
SKY/WX - SKY CONDITION/WEATHER
TMP    - TEMPERATURE IN FAHRENHEIT
DP     - DEW POINT IN FAHRENHEIT
RH     - RELATIVE HUMIDITY IN PERCENT
WIND   - DIRECTION AND SPEED IN MILES PER HOUR (MPH)
VRB    - VARIABLE WIND DIRECTION
PRES   - MEAN SEA LEVEL PRESSURE IN INCHES OF MERCURY
         F - FALLING PRESSURE   R - RISING PRESSURE
         S - STEADY PRESSURE
VSB    - VISIBILITY IN MILES
HX     - HEAT INDEX IN FAHRENHEIT
WCI    - WIND CHILL INDEX IN FAHRENHEIT
TC     - TEMPERATURE IN CELSIUS WHICH IS ALSO KNOWN AS
         TEMPERATURE IN CENTIGRADE
AFB    - AIR FORCE BASE
         LUKE AFB IS LUKE AIR FORCE BASE
         DAVIS-MONTHAN IS DAVIS-MONTHAN AIR FORCE BASE
NAS    - NAVAL AIR STATION
         EL CENTRO NAS IS EL CENTRO NAVAL AIR STATION
N/A    - NOT AVAILABLE




USA.gov is the U.S. government's official web portal to all federal, state and local government web resources and services.